Regional Weather Roundup
Issued by NWS

Home | Current Version | Previous Version | Graphics & Text | Print | Product List | Glossary On
Versions: 1 2 3 4 5 6 7 8 9 10 11 12 13 14 15 16 17 18 19 20 21 22 23 24 25 26 27 28 29 30 31 32 33 34 35 36 37 38 39 40 41 42 43 44 45 46 47 48 49 50
000
ASUS43 KDMX 010507
RWRIA

WEATHER ROUNDUP FOR IOWA
NATIONAL WEATHER SERVICE DES MOINES IA
1100 PM CST SAT JAN 31 2015

NOTE: "FAIR" INDICATES FEW OR NO CLOUDS BELOW 12,000 FEET WITH NO
SIGNIFICANT WEATHER AND/OR OBSTRUCTIONS TO VISIBILITY.

* - THESE STATIONS ARE NOT NWS STATIONS...THUS NOT UNDER NWS
QUALITY CONTROL.  THEY ALSO DO NOT REPORT WEATHER SUCH
AS PRECIPITATION OR FOG.

IAZ001>003-012>014-020>022-031>034-043>046-010600-
   NORTHWEST IOWA

CITY           SKY/WX    TMP DP  RH WIND       PRES   REMARKS
CARROLL *      LGT SNOW  32  32 100 E10       29.92F VSB 1   WCI  24
CHEROKEE *     LGT SNOW  28  28 100 NE13      29.97S WCI  18
DENISON *      LGT SNOW  32  32 100 E8        29.89F WCI  25
LE MARS *      LGT SNOW  28  27  93 NE16G25   29.97S WCI  17
ORANGE CITY *  LGT SNOW  27  25  93 E14G24    29.98R WCI  15
SHELDON *      LGT SNOW  25  25 100 NE22G31   29.98S WCI  10
SIOUX CITY     LGT SNOW  31  29  92 NE16      29.93F VSB 1   WCI  20
SPENCER        LGT SNOW  26  22  84 NE21      30.00F FOG     WCI  12
STORM LAKE *   LGT SNOW  28  28 100 NE21      29.95S VSB 1   WCI  15
$$

IAZ055>058-069>071-079>083-090>094-010600-
   SOUTHWEST IOWA

CITY           SKY/WX    TMP DP  RH WIND       PRES   REMARKS
ATLANTIC *     LGT SNOW  32  32 100 E6        29.90F WCI  26
AUDUBON *      LGT SNOW  32  30  93 E5        29.92S WCI  27
CLARINDA *     LGT SNOW  34  34 100 SE8       29.90F WCI  27
COUNCIL BLFS * LGT SNOW  32  32 100 E8        29.86F WCI  25
CRESTON *      CLOUDY    32  32 100 SE12      29.89F FOG     WCI  23
HARLAN  *      LGT SNOW  32  32 100 E7        29.93F WCI  26
LAMONI         LGT SNOW  32  32 100 SE14      29.91F FOG     WCI  22
RED OAK *      LGT SNOW  34  34 100 SE6       29.89F WCI  29
SHENANDOAH *   LGT SNOW  34  34 100 SE9       29.88F WCI  26
$$

IAZ047>049-059>061-072>074-084-010600-
   CENTRAL IOWA

CITY           SKY/WX    TMP DP  RH WIND       PRES   REMARKS
AMES           LGT SNOW  32  31  96 E8        29.96F VSB 3/4 WCI  25
ANKENY *       LGT SNOW  32  32 100 E8        29.95F WCI  25
CHARITON *     LGT SNOW  34  32  93 SE12      29.92F WCI  25
DES MOINES     LGT SNOW  34  31  88 E8        29.95F VSB 3/4 WCI  27
GRINNELL*      LGT SNOW  32  32 100 E7        29.98F VSB 1   WCI  26
KNOXVILLE *    LGT SNOW  34  32  93 SE9       29.93F WCI  26
MARSHALLTOWN   LGT SNOW  32  32 100 E12       29.97F VSB 3/4 WCI  23
PELLA *        HVY RAIN  33  32  99 SE5       29.97F WCI  28
PERRY *        LGT SNOW  32  32 100 E8        29.94F WCI  25
$$

IAZ004>006-015-016-023>025-035-036-010600-
   NORTH CENTRAL IOWA

CITY           SKY/WX    TMP DP  RH WIND       PRES   REMARKS
ALGONA *       LGT SNOW  27  27 100 NE17G24   30.00F VSB 3/4 WCI  14
CLARION *      LGT SNOW  28  28 100 E24       29.98F VSB 1   WCI  14
ESTHERVILLE    LGT SNOW  24  22  91 NE21      30.02F VSB 1   WCI   9
FORT DODGE *   CLOUDY    30  27  86 CALM      29.97F
MASON CITY     LGT SNOW  26  24  92 E20       30.04F FOG     WCI  12
FOREST CITY *  LGT SNOW  28  25  86 NE13G22   30.03F WCI  18
IOWA FALLS *   LGT SNOW  32  30  93 E10       29.99F VSB 1   WCI  24
$$

IAZ007>011-017>019-026>030-037>042-050>054-066-010600-
   NORTHEAST IOWA

CITY           SKY/WX    TMP DP  RH WIND       PRES   REMARKS
CEDAR RAPIDS   LGT SNOW  32  32 100 E8        30.02F VSB 1   WCI  25
CHARLES CITY * LGT SNOW  27  28 100 E15       30.05F VSB 1   WCI  15
CLINTON *      CLOUDY    34  30  86 SE7       30.11F WCI  28
DECORAH *      LGT SNOW  27  27 100 NE12G17   30.08S WCI  16
DUBUQUE        SNOW      30  28  92 E10       30.07F VSB 1/2 WCI  21
MONTICELLO *   LGT SNOW  32  32 100 E6        30.06F WCI  26
OELWEIN *      LGT SNOW  30  30 100 E14       30.05S VSB 3/4 WCI  20
WATERLOO       LGT SNOW  30  30 100 E13       30.03F VSB 1   WCI  20
$$

IAZ064-065-067-068-078-010600-
   EAST CENTRAL IOWA

CITY           SKY/WX    TMP DP  RH WIND       PRES   REMARKS
DAVENPORT      LGT SNOW  32  30  92 SE8       30.08F FOG     WCI  25
IOWA CITY      LGT SNOW  32  32 100 E8        30.05F VSB 3/4 WCI  25
MT. PLEASANT * LGT SNOW  32  32 100 SE10      30.03F WCI  24
MUSCATINE *    LGT SNOW  34  32  93 SE10      30.06F WCI  26
QUAD CITIES    LGT SNOW  33  31  92 SE5       30.08F FOG     WCI  29
$$

IAZ062-063-075>077-085>089-095>099-010600-
   SOUTHEAST IOWA

CITY           SKY/WX    TMP DP  RH WIND       PRES   REMARKS
BURLINGTON     LGT SNOW  33  32  96 SE9       30.05F FOG     WCI  25
FAIRFIELD *    LGT SNOW  34  32  93 SE14      30.00F WCI  24
FORT MADISON * LGT SNOW  32  32 100 SE8       30.05F WCI  25
KEOKUK *       LGT SNOW  34  34 100 SE10      30.03F WCI  26
OSKALOOSA *    LGT SNOW  32  32 100 SE14      29.98F WCI  22
CENTERVILLE *  LGT SNOW  32  32 100 SE9       29.96F WCI  24
OTTUMWA        LGT SNOW  33  33 100 SE14      29.97F FOG     WCI  23
WASHINGTON *   LGT SNOW  34  34 100 SE12      30.02F VSB 3/4 WCI  25
$$

ABBREVIATIONS USED IN REMARKS
   TC - TEMPERATURES IN CELSIUS
  WCI - WIND CHILL INDEX
   HX - HEAT INDEX
  VSB - VISIBILITY
$$




USA.gov is the U.S. government's official web portal to all federal, state and local government web resources and services.